| time (UTC) | temp F | wind direction | speed knots | gust knots | rain 1hr in | rain 24hr in | rain mn in | humidity % | barometer mb |
| 20260504044558 | 48 | 182 | 3.5 | 7.0 | 0.00 | 0.00 | 0.00 | 62 | 1017.6 |
| 20260504043052 | 43 | 229 | 0.9 | 2.6 | 0.00 | 0.00 | 0.00 | 70 | 1017.5 |
| 20260504041549 | 39 | 0 | 0.0 | 2.6 | 0.00 | 0.00 | 0.00 | 74 | 1017.6 |
| 20260504034558 | 36 | 196 | 0.9 | 2.6 | 0.00 | 0.00 | 0.00 | 75 | 1017.7 |
| 20260504033126 | 37 | 196 | 1.7 | 2.6 | 0.00 | 0.00 | 0.00 | 73 | 1017.8 |
| 20260504031549 | 39 | 195 | 2.6 | 6.1 | 0.00 | 0.00 | 0.00 | 75 | 1017.9 |
| 20260504030052 | 37 | 174 | 2.6 | 7.0 | 0.00 | 0.00 | 0.00 | 79 | 1017.9 |
| 20260504024556 | 34 | 196 | 5.2 | 8.7 | 0.00 | 0.00 | 0.00 | 81 | 1017.8 |
| 20260504023100 | 32 | 214 | 1.7 | 4.3 | 0.00 | 0.00 | 0.00 | 79 | 1017.8 |
| 20260504021557 | 33 | 207 | 0.9 | 4.3 | 0.00 | 0.00 | 0.00 | 79 | 1017.9 |
| 20260504020057 | 34 | 243 | 0.9 | 3.5 | 0.00 | 0.00 | 0.00 | 79 | 1017.9 |
| 20260504014553 | 34 | 247 | 1.7 | 3.5 | 0.00 | 0.00 | 0.00 | 79 | 1017.9 |
| 20260504013104 | 34 | 247 | 1.7 | 3.5 | 0.00 | 0.00 | 0.00 | 79 | 1018.0 |
| 20260504011548 | 34 | 205 | 0.0 | 2.6 | 0.00 | 0.00 | 0.00 | 78 | 1018.0 |
| 20260504010054 | 34 | 0 | 0.0 | 2.6 | 0.00 | 0.00 | 0.00 | 76 | 1018.2 |
| 20260504004605 | 37 | 205 | 0.9 | 2.6 | 0.00 | 0.00 | 0.00 | 73 | 1018.1 |
| 20260504003042 | 39 | 0 | 0.0 | 2.6 | 0.00 | 0.00 | 0.00 | 72 | 1018.0 |
| 20260504001543 | 40 | 0 | 0.0 | 4.3 | 0.00 | 0.00 | 0.00 | 73 | 1018.2 |
| 20260504000046 | 41 | 196 | 2.6 | 4.3 | 0.00 | 0.00 | 0.00 | 73 | 1018.3 |
| 20260503234551 | 41 | 159 | 1.7 | 4.3 | 0.00 | 0.00 | 0.00 | 75 | 1018.4 |
| 20260503233044 | 39 | 0 | 0.9 | 5.2 | 0.00 | 0.00 | 0.00 | 74 | 1018.4 |
| 20260503231546 | 41 | 215 | 1.7 | 3.5 | 0.00 | 0.00 | 0.00 | 70 | 1018.4 |
| 20260503230046 | 43 | 218 | 2.6 | 4.3 | 0.00 | 0.00 | 0.00 | 72 | 1018.4 |
| 20260503224546 | 42 | 198 | 0.9 | 1.7 | 0.00 | 0.00 | 0.00 | 72 | 1018.7 |
| 20260503223057 | 43 | 198 | 1.7 | 7.0 | 0.00 | 0.00 | 0.00 | 73 | 1018.7 |
| 20260503221551 | 41 | 200 | 3.5 | 6.1 | 0.00 | 0.00 | 0.00 | 77 | 1018.7 |
| 20260503220050 | 39 | 217 | 3.5 | 5.2 | 0.00 | 0.00 | 0.00 | 78 | 1018.7 |
| 20260503214543 | 37 | 238 | 0.9 | 2.6 | 0.00 | 0.00 | 0.00 | 79 | 1018.8 |
| 20260503213100 | 37 | 244 | 0.9 | 3.5 | 0.00 | 0.00 | 0.00 | 77 | 1018.7 |
| 20260503211549 | 38 | 285 | 1.7 | 3.5 | 0.00 | 0.00 | 0.00 | 76 | 1018.7 |
| 20260503210059 | 38 | 286 | 1.7 | 2.6 | 0.00 | 0.00 | 0.00 | 77 | 1018.7 |
| 20260503204554 | 39 | 286 | 0.9 | 2.6 | 0.00 | 0.00 | 0.00 | 74 | 1018.7 |
| 20260503203044 | 40 | 286 | 1.7 | 2.6 | 0.00 | 0.00 | 0.00 | 74 | 1018.8 |
| 20260503201547 | 41 | 286 | 1.7 | 3.5 | 0.00 | 0.00 | 0.00 | 72 | 1018.8 |
| 20260503200057 | 43 | 0 | 0.0 | 2.6 | 0.00 | 0.00 | 0.00 | 71 | 1018.9 |
| 20260503194549 | 43 | 0 | 0.0 | 3.5 | 0.00 | 0.00 | 0.00 | 70 | 1018.8 |
| 20260503193052 | 43 | 294 | 1.7 | 3.5 | 0.00 | 0.00 | 0.00 | 68 | 1018.6 |
| 20260503191550 | 47 | 317 | 2.6 | 5.2 | 0.00 | 0.00 | 0.00 | 62 | 1018.6 |
| 20260503190052 | 54 | 114 | 0.9 | 2.6 | 0.00 | 0.00 | 0.00 | 51 | 1018.5 |
| 20260503184557 | 56 | 140 | 0.9 | 2.6 | 0.00 | 0.00 | 0.00 | 46 | 1018.4 |
| 20260503183107 | 58 | 0 | 0.9 | 4.3 | 0.00 | 0.00 | 0.00 | 43 | 1018.3 |
| 20260503181548 | 58 | 229 | 0.9 | 2.6 | 0.00 | 0.00 | 0.00 | 42 | 1018.1 |
| 20260503180050 | 60 | 255 | 2.6 | 7.0 | 0.00 | 0.00 | 0.00 | 43 | 1018.0 |
| 20260503174550 | 59 | 5 | 3.5 | 7.0 | 0.00 | 0.00 | 0.00 | 43 | 1017.8 |
| 20260503173109 | 62 | 184 | 0.9 | 8.7 | 0.00 | 0.00 | 0.00 | 40 | 1017.8 |
| 20260503171545 | 63 | 101 | 4.3 | 9.6 | 0.00 | 0.00 | 0.00 | 40 | 1017.8 |
| 20260503081542 | 63 | 96 | 7.8 | 13.0 | 0.00 | 0.00 | 0.00 | 43 | 1021.8 |
| 20260503071551 | 61 | 205 | 1.7 | 6.1 | 0.00 | 0.00 | 0.00 | 47 | 1021.9 |
| 20260503054549 | 51 | 146 | 0.0 | 1.7 | 0.00 | 0.00 | 0.00 | 66 | 1021.9 |
| 20260503053048 | 49 | 146 | 0.0 | 2.6 | 0.00 | 0.00 | 0.00 | 70 | 1022.0 |